{"data":{"norad_id":51811,"intl_designator":"2022-017AV","name":"STARLINK-3569","alt_names":[],"object_type":"PAYLOAD","status":"ACTIVE","operator":null,"country":"US","launch_date":"2022-02-25","launch_site_code":"AFWTR","launch_vehicle":null,"mission":null,"orbit_class":"UNKNOWN","rcs_meters":null,"size_class":null,"mass_kg":null,"dimensions":null,"purposes":["comms"],"wikipedia_slug":null,"has_3d_model":false,"image_url":null,"decayed_at":null,"tle_current":{"epoch":"2026-09-20T01:04:11.932320Z","epoch_age_seconds":91614,"freshness":"FRESH","line1":"1 51811U 22017AV  26263.04458255  .00029317  00000+0  87365-3 0  9993","line2":"2 51811  53.1572 171.9570 0001443 108.3224 251.7935 15.34464296253504","mean_motion":15.34464296,"eccentricity":0.0001443,"inclination_deg":53.1572,"raan_deg":171.957,"arg_perigee_deg":108.3224,"mean_anomaly_deg":251.7935,"bstar":0.00087365,"rev_number":25350,"period_min":93.843825741254,"perigee_km":461.52503994648,"apogee_km":463.4992512899,"semimajor_km":6840.6491456182,"source":"CELESTRAK","updated_at":"2026-09-20T09:00:39.943472Z"}}}